| time (UTC) | temp F | wind direction | speed MPH | gust MPH | rain 1hr in | rain 24hr in | rain mn in | humidity % | barometer mb |
| 20260903235700 | 93 | 246 | 6.0 | 11.0 | 0.00 | 0.00 | 0.00 | 27 | 1015.3 |
| 20260903234653 | 93 | 252 | 8.0 | 10.0 | 0.00 | 0.00 | 0.00 | 27 | 1015.2 |
| 20260903233646 | 93 | 272 | 4.0 | 11.0 | 0.00 | 0.00 | 0.00 | 27 | 1015.2 |
| 20260903232656 | 92 | 277 | 5.0 | 11.0 | 0.00 | 0.00 | 0.00 | 28 | 1015.2 |
| 20260903231651 | 92 | 247 | 8.0 | 12.0 | 0.00 | 0.00 | 0.00 | 29 | 1015.2 |
| 20260903230649 | 92 | 241 | 9.0 | 15.0 | 0.00 | 0.00 | 0.00 | 29 | 1015.2 |
| 20260903225658 | 93 | 247 | 11.0 | 16.0 | 0.00 | 0.00 | 0.00 | 28 | 1015.1 |
| 20260903224648 | 94 | 228 | 6.0 | 12.0 | 0.00 | 0.00 | 0.00 | 25 | 1015.1 |
| 20260903223703 | 94 | 227 | 9.0 | 12.0 | 0.00 | 0.00 | 0.00 | 25 | 1015.2 |
| 20260903220650 | 95 | 319 | 2.0 | 11.0 | 0.00 | 0.00 | 0.00 | 25 | 1015.3 |
| 20260903214644 | 93 | 281 | 6.0 | 11.0 | 0.00 | 0.00 | 0.00 | 26 | 1015.5 |
| 20260903213702 | 95 | 302 | 2.0 | 7.0 | 0.00 | 0.00 | 0.00 | 26 | 1015.5 |
| 20260903212700 | 95 | 234 | 6.0 | 13.0 | 0.00 | 0.00 | 0.00 | 25 | 1015.9 |
| 20260903205645 | 94 | 271 | 4.0 | 10.0 | 0.00 | 0.00 | 0.00 | 25 | 1016.2 |
| 20260903204643 | 94 | 229 | 8.0 | 16.0 | 0.00 | 0.00 | 0.00 | 25 | 1016.5 |
| 20260903202700 | 94 | 255 | 4.0 | 9.0 | 0.00 | 0.00 | 0.00 | 25 | 1016.7 |
| 20260903201656 | 94 | 227 | 2.0 | 5.0 | 0.00 | 0.00 | 0.00 | 24 | 1016.7 |
| 20260903195648 | 95 | 289 | 1.0 | 10.0 | 0.00 | 0.00 | 0.00 | 24 | 1017.0 |
| 20260903194700 | 94 | 211 | 5.0 | 10.0 | 0.00 | 0.00 | 0.00 | 24 | 1017.3 |
| 20260903193648 | 93 | 252 | 4.0 | 9.0 | 0.00 | 0.00 | 0.00 | 25 | 1017.3 |
| 20260903192645 | 92 | 258 | 3.0 | 8.0 | 0.00 | 0.00 | 0.00 | 26 | 1017.6 |
| 20260903191642 | 93 | 252 | 6.0 | 12.0 | 0.00 | 0.00 | 0.00 | 26 | 1017.6 |
| 20260903190657 | 93 | 225 | 5.0 | 11.0 | 0.00 | 0.00 | 0.00 | 27 | 1017.8 |
| 20260903185643 | 94 | 271 | 4.0 | 13.0 | 0.00 | 0.00 | 0.00 | 27 | 1017.9 |
| 20260903184659 | 94 | 251 | 5.0 | 11.0 | 0.00 | 0.00 | 0.00 | 27 | 1018.3 |
| 20260903183653 | 93 | 238 | 6.0 | 9.0 | 0.00 | 0.00 | 0.00 | 28 | 1018.4 |
| 20260903182709 | 92 | 193 | 4.0 | 9.0 | 0.00 | 0.00 | 0.00 | 28 | 1018.4 |
| 20260903181638 | 91 | 134 | 3.0 | 12.0 | 0.00 | 0.00 | 0.00 | 29 | 1018.8 |
| 20260903180650 | 91 | 242 | 2.0 | 5.0 | 0.00 | 0.00 | 0.00 | 29 | 1018.8 |
| 20260903174638 | 90 | 211 | 1.0 | 6.0 | 0.00 | 0.00 | 0.00 | 30 | 1019.3 |
| 20260903173648 | 89 | 254 | 0.0 | 4.0 | 0.00 | 0.00 | 0.00 | 31 | 1019.4 |
| 20260903172640 | 88 | 190 | 1.0 | 5.0 | 0.00 | 0.00 | 0.00 | 33 | 1019.4 |
| 20260903171646 | 86 | 229 | 1.0 | 4.0 | 0.00 | 0.00 | 0.00 | 36 | 1019.4 |
| 20260903170637 | 86 | 283 | 3.0 | 4.0 | 0.00 | 0.00 | 0.00 | 37 | 1019.4 |
| 20260903165651 | 85 | 275 | 1.0 | 5.0 | 0.00 | 0.00 | 0.00 | 39 | 1019.5 |
| 20260903164639 | 84 | 215 | 2.0 | 6.0 | 0.00 | 0.00 | 0.00 | 41 | 1019.5 |
| 20260903163649 | 83 | 224 | 3.0 | 7.0 | 0.00 | 0.00 | 0.00 | 42 | 1019.6 |
| 20260903162650 | 83 | 238 | 0.0 | 5.0 | 0.00 | 0.00 | 0.00 | 42 | 1019.6 |
| 20260903161642 | 83 | 236 | 4.0 | 7.0 | 0.00 | 0.00 | 0.00 | 43 | 1019.5 |
| 20260903160636 | 83 | 243 | 3.0 | 8.0 | 0.00 | 0.00 | 0.00 | 44 | 1019.5 |
| 20260903155654 | 82 | 184 | 3.0 | 7.0 | 0.00 | 0.00 | 0.00 | 45 | 1019.4 |
| 20260903154647 | 82 | 262 | 6.0 | 8.0 | 0.00 | 0.00 | 0.00 | 46 | 1019.5 |
| 20260903153654 | 82 | 186 | 5.0 | 9.0 | 0.00 | 0.00 | 0.00 | 46 | 1019.6 |
| 20260903152645 | 82 | 269 | 6.0 | 11.0 | 0.00 | 0.00 | 0.00 | 46 | 1019.7 |
| 20260903150654 | 80 | 229 | 4.0 | 8.0 | 0.00 | 0.00 | 0.00 | 48 | 1019.7 |
| 20260903145646 | 79 | 194 | 4.0 | 9.0 | 0.00 | 0.00 | 0.00 | 49 | 1019.7 |
| 20260903143638 | 77 | 184 | 4.0 | 8.0 | 0.00 | 0.00 | 0.00 | 53 | 1019.7 |
| 20260903142637 | 76 | 221 | 3.0 | 8.0 | 0.00 | 0.00 | 0.00 | 54 | 1019.7 |
| 20260903141648 | 76 | 186 | 3.0 | 6.0 | 0.00 | 0.00 | 0.00 | 53 | 1019.7 |
| 20260903140639 | 76 | 174 | 5.0 | 11.0 | 0.00 | 0.00 | 0.00 | 53 | 1019.7 |
| 20260903134634 | 75 | 198 | 4.0 | 8.0 | 0.00 | 0.00 | 0.00 | 55 | 1019.5 |
| 20260903133646 | 75 | 220 | 4.0 | 9.0 | 0.00 | 0.00 | 0.00 | 56 | 1019.4 |
| 20260903132639 | 75 | 171 | 4.0 | 7.0 | 0.00 | 0.00 | 0.00 | 56 | 1019.4 |
| 20260903130632 | 74 | 174 | 3.0 | 9.0 | 0.00 | 0.00 | 0.00 | 57 | 1019.2 |
| 20260903124640 | 74 | 138 | 5.0 | 10.0 | 0.00 | 0.00 | 0.00 | 57 | 1019.1 |
| 20260903123635 | 74 | 197 | 4.0 | 9.0 | 0.00 | 0.00 | 0.00 | 57 | 1019.1 |
| 20260903122647 | 74 | 198 | 6.0 | 11.0 | 0.00 | 0.00 | 0.00 | 57 | 1019.0 |
| 20260903121642 | 74 | 186 | 7.0 | 10.0 | 0.00 | 0.00 | 0.00 | 56 | 1018.8 |
| 20260903120636 | 75 | 192 | 6.0 | 10.0 | 0.00 | 0.00 | 0.00 | 56 | 1018.6 |
| 20260903114644 | 75 | 201 | 4.0 | 9.0 | 0.00 | 0.00 | 0.00 | 55 | 1018.1 |
| 20260903113635 | 75 | 160 | 4.0 | 6.0 | 0.00 | 0.00 | 0.00 | 55 | 1018.1 |
| 20260903112631 | 75 | 165 | 3.0 | 6.0 | 0.00 | 0.00 | 0.00 | 54 | 1017.9 |
| 20260903111740 | 75 | 178 | 2.0 | 7.0 | 0.00 | 0.00 | 0.00 | 54 | 1018.0 |
| 20260903110739 | 76 | 173 | 2.0 | 7.0 | 0.00 | 0.00 | 0.00 | 53 | 1017.8 |
| 20260903104736 | 76 | 115 | 3.0 | 7.0 | 0.00 | 0.00 | 0.00 | 51 | 1018.0 |
| 20260903103735 | 76 | 201 | 4.0 | 9.0 | 0.00 | 0.00 | 0.00 | 50 | 1018.2 |
| 20260903102731 | 77 | 185 | 5.0 | 10.0 | 0.00 | 0.00 | 0.00 | 48 | 1018.2 |
| 20260903101745 | 77 | 200 | 3.0 | 8.0 | 0.00 | 0.00 | 0.00 | 49 | 1018.3 |
| 20260903100740 | 77 | 238 | 4.0 | 8.0 | 0.00 | 0.00 | 0.00 | 48 | 1018.3 |
| 20260903095749 | 77 | 208 | 4.0 | 12.0 | 0.00 | 0.00 | 0.00 | 47 | 1018.4 |
| 20260903094744 | 77 | 184 | 6.0 | 10.0 | 0.00 | 0.00 | 0.00 | 45 | 1018.5 |
| 20260903093739 | 77 | 159 | 3.0 | 6.0 | 0.00 | 0.00 | 0.00 | 44 | 1018.4 |
| 20260903091742 | 77 | 177 | 4.0 | 9.0 | 0.00 | 0.00 | 0.00 | 43 | 1018.3 |
| 20260903090741 | 78 | 225 | 4.0 | 8.0 | 0.00 | 0.00 | 0.00 | 42 | 1018.4 |
| 20260903085731 | 78 | 186 | 3.0 | 7.0 | 0.00 | 0.00 | 0.00 | 40 | 1018.5 |
| 20260903083747 | 80 | 164 | 3.0 | 9.0 | 0.00 | 0.00 | 0.00 | 38 | 1018.1 |
| 20260903082743 | 80 | 182 | 4.0 | 7.0 | 0.00 | 0.00 | 0.00 | 38 | 1018.2 |
| 20260903081735 | 80 | 217 | 2.0 | 5.0 | 0.00 | 0.00 | 0.00 | 37 | 1018.1 |
| 20260903080748 | 80 | 212 | 4.0 | 8.0 | 0.00 | 0.00 | 0.00 | 37 | 1018.1 |
| 20260903075732 | 80 | 205 | 6.0 | 10.0 | 0.00 | 0.00 | 0.00 | 37 | 1018.2 |
| 20260903074732 | 80 | 180 | 3.0 | 7.0 | 0.00 | 0.00 | 0.00 | 36 | 1018.3 |
| 20260903073745 | 80 | 170 | 4.0 | 6.0 | 0.00 | 0.00 | 0.00 | 35 | 1018.0 |
| 20260903072734 | 80 | 155 | 1.0 | 4.0 | 0.00 | 0.00 | 0.00 | 34 | 1018.0 |
| 20260903071733 | 81 | 155 | 2.0 | 5.0 | 0.00 | 0.00 | 0.00 | 34 | 1017.9 |
| 20260903065743 | 82 | 120 | 2.0 | 4.0 | 0.00 | 0.00 | 0.00 | 32 | 1018.0 |
| 20260903063736 | 82 | 86 | 2.0 | 6.0 | 0.00 | 0.00 | 0.00 | 33 | 1018.2 |
| 20260903062737 | 82 | 97 | 3.0 | 5.0 | 0.00 | 0.00 | 0.00 | 33 | 1018.1 |
| 20260903061730 | 83 | 76 | 3.0 | 5.0 | 0.00 | 0.00 | 0.00 | 32 | 1018.3 |
| 20260903060728 | 84 | 90 | 3.0 | 4.0 | 0.00 | 0.00 | 0.00 | 30 | 1018.2 |
| 20260903055738 | 84 | 131 | 1.0 | 3.0 | 0.00 | 0.00 | 0.00 | 30 | 1018.3 |
| 20260903053729 | 85 | 140 | 2.0 | 6.0 | 0.00 | 0.00 | 0.00 | 29 | 1017.6 |
| 20260903051740 | 85 | 138 | 3.0 | 8.0 | 0.00 | 0.00 | 0.00 | 29 | 1017.6 |
| 20260903050729 | 85 | 137 | 2.0 | 6.0 | 0.00 | 0.00 | 0.00 | 29 | 1017.7 |
| 20260903045729 | 85 | 137 | 5.0 | 7.0 | 0.00 | 0.00 | 0.00 | 29 | 1017.6 |
| 20260903043733 | 86 | 129 | 1.0 | 3.0 | 0.00 | 0.00 | 0.00 | 28 | 1017.6 |
| 20260903042728 | 86 | 142 | 2.0 | 7.0 | 0.00 | 0.00 | 0.00 | 28 | 1017.5 |
| 20260903041734 | 86 | 169 | 4.0 | 8.0 | 0.00 | 0.00 | 0.00 | 28 | 1017.6 |
| 20260903040744 | 87 | 101 | 2.0 | 3.0 | 0.00 | 0.00 | 0.00 | 28 | 1017.3 |
| 20260903035740 | 87 | 109 | 2.0 | 3.0 | 0.00 | 0.00 | 0.00 | 27 | 1017.4 |
| 20260903034737 | 87 | 107 | 2.0 | 3.0 | 0.00 | 0.00 | 0.00 | 27 | 1017.4 |
| 20260903033727 | 88 | 141 | 1.0 | 3.0 | 0.00 | 0.00 | 0.00 | 26 | 1017.3 |
| 20260903032737 | 88 | 150 | 2.0 | 2.0 | 0.00 | 0.00 | 0.00 | 26 | 1017.1 |
| 20260903031735 | 89 | 205 | 1.0 | 2.0 | 0.00 | 0.00 | 0.00 | 26 | 1017.0 |
| 20260903030725 | 89 | 206 | 0.0 | 2.0 | 0.00 | 0.00 | 0.00 | 26 | 1016.9 |
| 20260903025740 | 89 | 216 | 1.0 | 4.0 | 0.00 | 0.00 | 0.00 | 26 | 1016.7 |
| 20260903024735 | 89 | 221 | 2.0 | 4.0 | 0.00 | 0.00 | 0.00 | 25 | 1016.6 |
| 20260903023732 | 89 | 198 | 1.0 | 4.0 | 0.00 | 0.00 | 0.00 | 25 | 1016.5 |
| 20260903020734 | 90 | 256 | 3.0 | 8.0 | 0.00 | 0.00 | 0.00 | 25 | 1016.3 |
| 20260903015725 | 90 | 250 | 4.0 | 7.0 | 0.00 | 0.00 | 0.00 | 24 | 1016.1 |
| 20260903014731 | 91 | 251 | 2.0 | 5.0 | 0.00 | 0.00 | 0.00 | 24 | 1016.1 |
| 20260903013726 | 91 | 237 | 4.0 | 7.0 | 0.00 | 0.00 | 0.00 | 23 | 1016.1 |
| 20260903012737 | 91 | 167 | 2.0 | 4.0 | 0.00 | 0.00 | 0.00 | 23 | 1016.0 |
| 20260903011724 | 92 | 236 | 2.0 | 3.0 | 0.00 | 0.00 | 0.00 | 22 | 1016.0 |
| 20260903004726 | 93 | 227 | 4.0 | 8.0 | 0.00 | 0.00 | 0.00 | 22 | 1016.0 |
| 20260903002721 | 93 | 244 | 5.0 | 9.0 | 0.00 | 0.00 | 0.00 | 23 | 1016.2 |
| 20260903001735 | 94 | 223 | 5.0 | 9.0 | 0.00 | 0.00 | 0.00 | 23 | 1016.0 |
| 20260903000730 | 94 | 251 | 8.0 | 12.0 | 0.00 | 0.00 | 0.00 | 22 | 1016.0 |